Location: Tamazert
(32.6352°N, 5.2072°W)
Time: 05:42:13
(UTC+00:00)

Cosmos 2237 Rocket - Pass Details

Date: 22 May 2022
Orbit: 833 x 851 km, 71.0° (Epoch: 24 June)

Event Time Altitude Azimuth Distance (km) Brightness Sun altitude
Exits shadow 02:10:20 51° 330° (NNW) 1,058 2.7 -30.5°
Drops below altitude 10° 02:14:59 10° 12° (NNE) 2,475 5.4 -30.0°
Sets 02:17:29 0° 16° (NNE) 3,416 6.4 -29.7°
